owner,sensor,date,latitude,longitude,vertical_datum,sea_water_practical_salinity,qcFlag 
NERRS,ioos:station:NOAA.NERRS:gndbhwq:1,2012-07-09T13:45:00Z,30.4178,-88.4054,0.0,22.1,1111122 
NERRS,ioos:station:NOAA.NERRS:gndbhwq:1,2012-07-09T14:45:00Z,30.4178,-88.4054,0.0,22.1,1111122 
NERRS,ioos:station:NOAA.NERRS:gndbhwq:1,2012-07-09T15:45:00Z,30.4178,-88.4054,0.0,22.0,1111122 
NERRS,ioos:station:NOAA.NERRS:gndbhwq:1,2012-07-09T16:45:00Z,30.4178,-88.4054,0.0,22.1,1111122 
NERRS,ioos:station:NOAA.NERRS:gndbhwq:1,2012-07-09T17:45:00Z,30.4178,-88.4054,0.0,22.0,1111122 
NERRS,ioos:station:NOAA.NERRS:gndbhwq:1,2012-07-09T18:45:00Z,30.4178,-88.4054,0.0,22.1,1111122 
NERRS,ioos:station:NOAA.NERRS:gndbhwq:1,2012-07-09T19:45:00Z,30.4178,-88.4054,0.0,21.9,1111122 
NERRS,ioos:station:NOAA.NERRS:gndbhwq:1,2012-07-09T20:45:00Z,30.4178,-88.4054,0.0,21.8,1111122 
NERRS,ioos:station:NOAA.NERRS:gndbhwq:1,2012-07-09T21:45:00Z,30.4178,-88.4054,0.0,22.0,1111122 
NERRS,ioos:station:NOAA.NERRS:gndbhwq:1,2012-07-09T22:45:00Z,30.4178,-88.4054,0.0,21.7,1111122 
NERRS,ioos:station:NOAA.NERRS:gndbhwq:1,2012-07-09T23:45:00Z,30.4178,-88.4054,0.0,21.9,1111122 
NERRS,ioos:station:NOAA.NERRS:gndbhwq:1,2012-07-10T00:45:00Z,30.4178,-88.4054,0.0,21.7,1111122 
NERRS,ioos:station:NOAA.NERRS:gndbhwq:1,2012-07-10T01:45:00Z,30.4178,-88.4054,0.0,21.7,1111122 
NERRS,ioos:station:NOAA.NERRS:gndbhwq:1,2012-07-10T02:45:00Z,30.4178,-88.4054,0.0,21.7,1111122 
NERRS,ioos:station:NOAA.NERRS:gndbhwq:1,2012-07-10T03:45:00Z,30.4178,-88.4054,0.0,21.9,1111122 
NERRS,ioos:station:NOAA.NERRS:gndbhwq:1,2012-07-10T04:45:00Z,30.4178,-88.4054,0.0,21.9,1111122 
NERRS,ioos:station:NOAA.NERRS:gndbhwq:1,2012-07-10T05:45:00Z,30.4178,-88.4054,0.0,21.8,1111122 
NERRS,ioos:station:NOAA.NERRS:gndbhwq:1,2012-07-10T06:45:00Z,30.4178,-88.4054,0.0,21.8,1111122 
NERRS,ioos:station:NOAA.NERRS:gndbhwq:1,2012-07-10T07:45:00Z,30.4178,-88.4054,0.0,21.9,1111122 
NERRS,ioos:station:NOAA.NERRS:gndbhwq:1,2012-07-10T08:45:00Z,30.4178,-88.4054,0.0,21.9,1111122 
NERRS,ioos:station:NOAA.NERRS:gndbhwq:1,2012-07-10T09:45:00Z,30.4178,-88.4054,0.0,21.8,1111122 
NERRS,ioos:station:NOAA.NERRS:gndbhwq:1,2012-07-10T10:45:00Z,30.4178,-88.4054,0.0,21.8,1111122 
NERRS,ioos:station:NOAA.NERRS:gndbhwq:1,2012-07-10T11:45:00Z,30.4178,-88.4054,0.0,21.8,1111122 
NERRS,ioos:station:NOAA.NERRS:gndbhwq:1,2012-07-10T12:45:00Z,30.4178,-88.4054,0.0,21.8,1111122 
NERRS,ioos:station:NOAA.NERRS:gndbhwq:1,2012-07-10T13:45:00Z,30.4178,-88.4054,0.0,21.8,1111122 
NERRS,ioos:station:NOAA.NERRS:gndbhwq:1,2012-07-10T14:45:00Z,30.4178,-88.4054,0.0,21.7,1111122 
NERRS,ioos:station:NOAA.NERRS:gndbhwq:1,2012-07-10T16:45:00Z,30.4178,-88.4054,0.0,21.6,1111122 
NERRS,ioos:station:NOAA.NERRS:gndbhwq:1,2012-07-10T18:45:00Z,30.4178,-88.4054,0.0,21.4,1111122 
NERRS,ioos:station:NOAA.NERRS:gndbhwq:1,2012-07-10T19:45:00Z,30.4178,-88.4054,0.0,21.3,1111122 
NERRS,ioos:station:NOAA.NERRS:gndbhwq:1,2012-07-10T20:45:00Z,30.4178,-88.4054,0.0,21.0,1111122 
NERRS,ioos:station:NOAA.NERRS:gndbhwq:1,2012-07-10T21:45:00Z,30.4178,-88.4054,0.0,21.0,1111122 
NERRS,ioos:station:NOAA.NERRS:gndbhwq:1,2012-07-10T22:45:00Z,30.4178,-88.4054,0.0,20.6,1111122 
NERRS,ioos:station:NOAA.NERRS:gndbhwq:1,2012-07-10T23:45:00Z,30.4178,-88.4054,0.0,20.7,1111122 
NERRS,ioos:station:NOAA.NERRS:gndbhwq:1,2012-07-11T00:45:00Z,30.4178,-88.4054,0.0,20.5,1111122 
NERRS,ioos:station:NOAA.NERRS:gndbhwq:1,2012-07-11T01:45:00Z,30.4178,-88.4054,0.0,20.8,1111122 
NERRS,ioos:station:NOAA.NERRS:gndbhwq:1,2012-07-11T02:45:00Z,30.4178,-88.4054,0.0,20.7,1111122 
NERRS,ioos:station:NOAA.NERRS:gndbhwq:1,2012-07-11T03:45:00Z,30.4178,-88.4054,0.0,20.6,1111122 
NERRS,ioos:station:NOAA.NERRS:gndbhwq:1,2012-07-11T04:45:00Z,30.4178,-88.4054,0.0,20.6,1111122 
NERRS,ioos:station:NOAA.NERRS:gndbhwq:1,2012-07-11T05:45:00Z,30.4178,-88.4054,0.0,20.6,1111122 
NERRS,ioos:station:NOAA.NERRS:gndbhwq:1,2012-07-11T06:45:00Z,30.4178,-88.4054,0.0,20.6,1111122 
NERRS,ioos:station:NOAA.NERRS:gndbhwq:1,2012-07-11T07:45:00Z,30.4178,-88.4054,0.0,20.6,1111122 
NERRS,ioos:station:NOAA.NERRS:gndbhwq:1,2012-07-11T08:45:00Z,30.4178,-88.4054,0.0,20.4,1111122 
NERRS,ioos:station:NOAA.NERRS:gndbhwq:1,2012-07-11T09:45:00Z,30.4178,-88.4054,0.0,20.4,1111122 
NERRS,ioos:station:NOAA.NERRS:gndbhwq:1,2012-07-11T10:45:00Z,30.4178,-88.4054,0.0,20.2,1111122 
NERRS,ioos:station:NOAA.NERRS:gndbhwq:1,2012-07-11T11:45:00Z,30.4178,-88.4054,0.0,20.2,1111122 
NERRS,ioos:station:NOAA.NERRS:gndbhwq:1,2012-07-11T12:45:00Z,30.4178,-88.4054,0.0,20.1,1111122 
NERRS,ioos:station:NOAA.NERRS:gndbhwq:1,2012-07-11T13:45:00Z,30.4178,-88.4054,0.0,20.0,1111122 
NERRS,ioos:station:NOAA.NERRS:gndbhwq:1,2012-07-12T01:45:00Z,30.4178,-88.4054,0.0,18.1,1111122 
NERRS,ioos:station:NOAA.NERRS:gndbhwq:1,2012-07-12T02:45:00Z,30.4178,-88.4054,0.0,18.2,1111122 
NERRS,ioos:station:NOAA.NERRS:gndbhwq:1,2012-07-12T03:45:00Z,30.4178,-88.4054,0.0,18.4,1111122 
NERRS,ioos:station:NOAA.NERRS:gndbhwq:1,2012-07-12T04:45:00Z,30.4178,-88.4054,0.0,17.9,1111122 
NERRS,ioos:station:NOAA.NERRS:gndbhwq:1,2012-07-12T05:45:00Z,30.4178,-88.4054,0.0,17.9,1111122 
NERRS,ioos:station:NOAA.NERRS:gndbhwq:1,2012-07-12T06:45:00Z,30.4178,-88.4054,0.0,17.9,1111122 
NERRS,ioos:station:NOAA.NERRS:gndbhwq:1,2012-07-12T07:45:00Z,30.4178,-88.4054,0.0,17.8,1111122 
NERRS,ioos:station:NOAA.NERRS:gndbhwq:1,2012-07-12T08:45:00Z,30.4178,-88.4054,0.0,17.7,1111122 
NERRS,ioos:station:NOAA.NERRS:gndbhwq:1,2012-07-12T09:45:00Z,30.4178,-88.4054,0.0,17.9,1111122 
NERRS,ioos:station:NOAA.NERRS:gndbhwq:1,2012-07-12T10:45:00Z,30.4178,-88.4054,0.0,18.1,1111122 
NERRS,ioos:station:NOAA.NERRS:gndbhwq:1,2012-07-12T11:45:00Z,30.4178,-88.4054,0.0,18.0,1111122 
NERRS,ioos:station:NOAA.NERRS:gndbhwq:1,2012-07-12T12:45:00Z,30.4178,-88.4054,0.0,18.4,1111122 
NERRS,ioos:station:NOAA.NERRS:gndbhwq:1,2012-07-12T13:45:00Z,30.4178,-88.4054,0.0,18.8,1111122 
NERRS,ioos:station:NOAA.NERRS:gndbhwq:1,2012-07-12T14:45:00Z,30.4178,-88.4054,0.0,18.9,1111122 
NERRS,ioos:station:NOAA.NERRS:gndbhwq:1,2012-07-12T15:45:00Z,30.4178,-88.4054,0.0,19.1,1111122 
NERRS,ioos:station:NOAA.NERRS:gndbhwq:1,2012-07-12T16:45:00Z,30.4178,-88.4054,0.0,18.6,1111122 
NERRS,ioos:station:NOAA.NERRS:gndbhwq:1,2012-07-12T17:45:00Z,30.4178,-88.4054,0.0,18.8,1111122 
NERRS,ioos:station:NOAA.NERRS:gndbhwq:1,2012-07-12T18:45:00Z,30.4178,-88.4054,0.0,18.5,1111122 
NERRS,ioos:station:NOAA.NERRS:gndbhwq:1,2012-07-12T19:45:00Z,30.4178,-88.4054,0.0,18.2,1111122 
NERRS,ioos:station:NOAA.NERRS:gndbhwq:1,2012-07-12T20:45:00Z,30.4178,-88.4054,0.0,18.1,1111122 
NERRS,ioos:station:NOAA.NERRS:gndbhwq:1,2012-07-12T21:45:00Z,30.4178,-88.4054,0.0,17.6,1111122 
NERRS,ioos:station:NOAA.NERRS:gndbhwq:1,2012-07-12T22:45:00Z,30.4178,-88.4054,0.0,17.8,1111122 
NERRS,ioos:station:NOAA.NERRS:gndbhwq:1,2012-07-12T23:45:00Z,30.4178,-88.4054,0.0,17.6,1111122 
NERRS,ioos:station:NOAA.NERRS:gndbhwq:1,2012-07-13T00:45:00Z,30.4178,-88.4054,0.0,17.6,1111122 
NERRS,ioos:station:NOAA.NERRS:gndbhwq:1,2012-07-13T01:45:00Z,30.4178,-88.4054,0.0,17.5,1111122 
NERRS,ioos:station:NOAA.NERRS:gndbhwq:1,2012-07-13T02:45:00Z,30.4178,-88.4054,0.0,17.5,1111122 
NERRS,ioos:station:NOAA.NERRS:gndbhwq:1,2012-07-13T03:45:00Z,30.4178,-88.4054,0.0,18.1,1111122 
NERRS,ioos:station:NOAA.NERRS:gndbhwq:1,2012-07-13T04:45:00Z,30.4178,-88.4054,0.0,18.5,1111122 
NERRS,ioos:station:NOAA.NERRS:gndbhwq:1,2012-07-13T05:45:00Z,30.4178,-88.4054,0.0,19.1,1111122 
NERRS,ioos:station:NOAA.NERRS:gndbhwq:1,2012-07-13T06:45:00Z,30.4178,-88.4054,0.0,19.5,1111122 
NERRS,ioos:station:NOAA.NERRS:gndbhwq:1,2012-07-13T07:45:00Z,30.4178,-88.4054,0.0,19.7,1111122 
NERRS,ioos:station:NOAA.NERRS:gndbhwq:1,2012-07-13T08:45:00Z,30.4178,-88.4054,0.0,19.7,1111122 
NERRS,ioos:station:NOAA.NERRS:gndbhwq:1,2012-07-13T09:45:00Z,30.4178,-88.4054,0.0,20.1,1111122 
NERRS,ioos:station:NOAA.NERRS:gndbhwq:1,2012-07-13T10:45:00Z,30.4178,-88.4054,0.0,20.5,1111122 
NERRS,ioos:station:NOAA.NERRS:gndbhwq:1,2012-07-13T11:45:00Z,30.4178,-88.4054,0.0,21.0,1111122 
NERRS,ioos:station:NOAA.NERRS:gndbhwq:1,2012-07-13T12:45:00Z,30.4178,-88.4054,0.0,21.4,1111122 
NERRS,ioos:station:NOAA.NERRS:gndbhwq:1,2012-07-13T13:45:00Z,30.4178,-88.4054,0.0,21.7,1111122 
NERRS,ioos:station:NOAA.NERRS:gndbhwq:1,2012-07-13T14:45:00Z,30.4178,-88.4054,0.0,22.0,1111122 
NERRS,ioos:station:NOAA.NERRS:gndbhwq:1,2012-07-13T15:45:00Z,30.4178,-88.4054,0.0,22.1,1111122 
NERRS,ioos:station:NOAA.NERRS:gndbhwq:1,2012-07-13T16:45:00Z,30.4178,-88.4054,0.0,22.2,1111122 
NERRS,ioos:station:NOAA.NERRS:gndbhwq:1,2012-07-13T17:45:00Z,30.4178,-88.4054,0.0,22.0,1111122 
NERRS,ioos:station:NOAA.NERRS:gndbhwq:1,2012-07-13T18:45:00Z,30.4178,-88.4054,0.0,21.7,1111122 
NERRS,ioos:station:NOAA.NERRS:gndbhwq:1,2012-07-13T19:45:00Z,30.4178,-88.4054,0.0,21.4,1111122 
NERRS,ioos:station:NOAA.NERRS:gndbhwq:1,2012-07-13T20:45:00Z,30.4178,-88.4054,0.0,21.5,1111122 
NERRS,ioos:station:NOAA.NERRS:gndbhwq:1,2012-07-13T21:45:00Z,30.4178,-88.4054,0.0,20.7,1111122 
NERRS,ioos:station:NOAA.NERRS:gndbhwq:1,2012-07-13T22:45:00Z,30.4178,-88.4054,0.0,20.1,1111122 
NERRS,ioos:station:NOAA.NERRS:gndbhwq:1,2012-07-13T23:45:00Z,30.4178,-88.4054,0.0,19.3,1111122 
NERRS,ioos:station:NOAA.NERRS:gndbhwq:1,2012-07-14T00:30:00Z,30.4178,-88.4054,0.0,19.6,1111122 
NERRS,ioos:station:NOAA.NERRS:gndbhwq:1,2012-07-14T01:45:00Z,30.4178,-88.4054,0.0,19.3,1111122 
NERRS,ioos:station:NOAA.NERRS:gndbhwq:1,2012-07-14T02:45:00Z,30.4178,-88.4054,0.0,19.1,1111122 
NERRS,ioos:station:NOAA.NERRS:gndbhwq:1,2012-07-14T03:45:00Z,30.4178,-88.4054,0.0,20.0,1111122 
NERRS,ioos:station:NOAA.NERRS:gndbhwq:1,2012-07-14T04:45:00Z,30.4178,-88.4054,0.0,20.2,1111122 
NERRS,ioos:station:NOAA.NERRS:gndbhwq:1,2012-07-14T05:45:00Z,30.4178,-88.4054,0.0,20.9,1111122 
NERRS,ioos:station:NOAA.NERRS:gndbhwq:1,2012-07-14T06:45:00Z,30.4178,-88.4054,0.0,21.3,1111122 
NERRS,ioos:station:NOAA.NERRS:gndbhwq:1,2012-07-14T07:45:00Z,30.4178,-88.4054,0.0,21.3,1111122 
NERRS,ioos:station:NOAA.NERRS:gndbhwq:1,2012-07-14T08:45:00Z,30.4178,-88.4054,0.0,21.5,1111122 
NERRS,ioos:station:NOAA.NERRS:gndbhwq:1,2012-07-14T09:45:00Z,30.4178,-88.4054,0.0,21.5,1111122 
NERRS,ioos:station:NOAA.NERRS:gndbhwq:1,2012-07-14T10:45:00Z,30.4178,-88.4054,0.0,21.8,1111122 
NERRS,ioos:station:NOAA.NERRS:gndbhwq:1,2012-07-14T11:45:00Z,30.4178,-88.4054,0.0,22.1,1111122 
NERRS,ioos:station:NOAA.NERRS:gndbhwq:1,2012-07-14T12:45:00Z,30.4178,-88.4054,0.0,21.8,1111122 
NERRS,ioos:station:NOAA.NERRS:gndbhwq:1,2012-07-14T13:45:00Z,30.4178,-88.4054,0.0,21.9,1111122 
NERRS,ioos:station:NOAA.NERRS:gndbhwq:1,2012-07-14T14:45:00Z,30.4178,-88.4054,0.0,22.2,1111122 
NERRS,ioos:station:NOAA.NERRS:gndbhwq:1,2012-07-14T15:45:00Z,30.4178,-88.4054,0.0,22.4,1111122 
NERRS,ioos:station:NOAA.NERRS:gndbhwq:1,2012-07-14T16:45:00Z,30.4178,-88.4054,0.0,21.5,1111122 
NERRS,ioos:station:NOAA.NERRS:gndbhwq:1,2012-07-14T17:45:00Z,30.4178,-88.4054,0.0,21.3,1111122 
NERRS,ioos:station:NOAA.NERRS:gndbhwq:1,2012-07-14T18:45:00Z,30.4178,-88.4054,0.0,20.8,1111122 
NERRS,ioos:station:NOAA.NERRS:gndbhwq:1,2012-07-14T19:45:00Z,30.4178,-88.4054,0.0,20.6,1111122 
NERRS,ioos:station:NOAA.NERRS:gndbhwq:1,2012-07-14T20:45:00Z,30.4178,-88.4054,0.0,21.2,1111122 
NERRS,ioos:station:NOAA.NERRS:gndbhwq:1,2012-07-14T21:45:00Z,30.4178,-88.4054,0.0,21.1,1111122 
NERRS,ioos:station:NOAA.NERRS:gndbhwq:1,2012-07-14T22:45:00Z,30.4178,-88.4054,0.0,19.6,1111122 
NERRS,ioos:station:NOAA.NERRS:gndbhwq:1,2012-07-14T23:45:00Z,30.4178,-88.4054,0.0,20.3,1111122 
NERRS,ioos:station:NOAA.NERRS:gndbhwq:1,2012-07-15T00:45:00Z,30.4178,-88.4054,0.0,20.6,1111122 
NERRS,ioos:station:NOAA.NERRS:gndbhwq:1,2012-07-15T01:45:00Z,30.4178,-88.4054,0.0,19.2,1111122 
NERRS,ioos:station:NOAA.NERRS:gndbhwq:1,2012-07-15T02:45:00Z,30.4178,-88.4054,0.0,20.0,1111122 
NERRS,ioos:station:NOAA.NERRS:gndbhwq:1,2012-07-15T03:45:00Z,30.4178,-88.4054,0.0,20.4,1111122 
NERRS,ioos:station:NOAA.NERRS:gndbhwq:1,2012-07-15T04:30:00Z,30.4178,-88.4054,0.0,20.7,1111122 
NERRS,ioos:station:NOAA.NERRS:gndbhwq:1,2012-07-15T05:45:00Z,30.4178,-88.4054,0.0,21.4,1111122 
NERRS,ioos:station:NOAA.NERRS:gndbhwq:1,2012-07-15T06:45:00Z,30.4178,-88.4054,0.0,21.1,1111122 
NERRS,ioos:station:NOAA.NERRS:gndbhwq:1,2012-07-15T07:45:00Z,30.4178,-88.4054,0.0,20.9,1111122 
NERRS,ioos:station:NOAA.NERRS:gndbhwq:1,2012-07-15T08:45:00Z,30.4178,-88.4054,0.0,20.7,1111122 
NERRS,ioos:station:NOAA.NERRS:gndbhwq:1,2012-07-15T09:45:00Z,30.4178,-88.4054,0.0,20.9,1111122 
NERRS,ioos:station:NOAA.NERRS:gndbhwq:1,2012-07-15T10:45:00Z,30.4178,-88.4054,0.0,21.1,1111122 
NERRS,ioos:station:NOAA.NERRS:gndbhwq:1,2012-07-15T11:45:00Z,30.4178,-88.4054,0.0,21.1,1111122 
NERRS,ioos:station:NOAA.NERRS:gndbhwq:1,2012-07-15T12:45:00Z,30.4178,-88.4054,0.0,20.9,1111122 
NERRS,ioos:station:NOAA.NERRS:gndbhwq:1,2012-07-15T13:45:00Z,30.4178,-88.4054,0.0,20.6,1111122 
NERRS,ioos:station:NOAA.NERRS:gndbhwq:1,2012-07-15T14:45:00Z,30.4178,-88.4054,0.0,20.7,1111122 
NERRS,ioos:station:NOAA.NERRS:gndbhwq:1,2012-07-15T15:45:00Z,30.4178,-88.4054,0.0,21.1,1111122 
NERRS,ioos:station:NOAA.NERRS:gndbhwq:1,2012-07-15T16:45:00Z,30.4178,-88.4054,0.0,20.4,1111122 
NERRS,ioos:station:NOAA.NERRS:gndbhwq:1,2012-07-15T17:45:00Z,30.4178,-88.4054,0.0,20.3,1111122 
NERRS,ioos:station:NOAA.NERRS:gndbhwq:1,2012-07-15T18:45:00Z,30.4178,-88.4054,0.0,19.4,1111122 
NERRS,ioos:station:NOAA.NERRS:gndbhwq:1,2012-07-15T19:45:00Z,30.4178,-88.4054,0.0,18.1,1111122 
NERRS,ioos:station:NOAA.NERRS:gndbhwq:1,2012-07-15T20:45:00Z,30.4178,-88.4054,0.0,2.4,1111122 
NERRS,ioos:station:NOAA.NERRS:gndbhwq:1,2012-07-15T21:45:00Z,30.4178,-88.4054,0.0,1.0,1111122 
NERRS,ioos:station:NOAA.NERRS:gndbhwq:1,2012-07-15T22:45:00Z,30.4178,-88.4054,0.0,0.9,1111122 
NERRS,ioos:station:NOAA.NERRS:gndbhwq:1,2012-07-15T23:45:00Z,30.4178,-88.4054,0.0,1.0,1111122 
NERRS,ioos:station:NOAA.NERRS:gndbhwq:1,2012-07-16T00:45:00Z,30.4178,-88.4054,0.0,0.7,1111122 
NERRS,ioos:station:NOAA.NERRS:gndbhwq:1,2012-07-16T01:45:00Z,30.4178,-88.4054,0.0,9.5,1111122 
NERRS,ioos:station:NOAA.NERRS:gndbhwq:1,2012-07-16T02:45:00Z,30.4178,-88.4054,0.0,19.3,1111122 
NERRS,ioos:station:NOAA.NERRS:gndbhwq:1,2012-07-16T03:45:00Z,30.4178,-88.4054,0.0,19.7,1111122 
NERRS,ioos:station:NOAA.NERRS:gndbhwq:1,2012-07-16T04:45:00Z,30.4178,-88.4054,0.0,19.4,1111122 
NERRS,ioos:station:NOAA.NERRS:gndbhwq:1,2012-07-16T05:45:00Z,30.4178,-88.4054,0.0,20.0,1111122 
NERRS,ioos:station:NOAA.NERRS:gndbhwq:1,2012-07-16T06:45:00Z,30.4178,-88.4054,0.0,20.0,1111122 
NERRS,ioos:station:NOAA.NERRS:gndbhwq:1,2012-07-16T07:45:00Z,30.4178,-88.4054,0.0,20.2,1111122 
NERRS,ioos:station:NOAA.NERRS:gndbhwq:1,2012-07-16T08:45:00Z,30.4178,-88.4054,0.0,20.0,1111122 
NERRS,ioos:station:NOAA.NERRS:gndbhwq:1,2012-07-16T09:45:00Z,30.4178,-88.4054,0.0,20.3,1111122 
NERRS,ioos:station:NOAA.NERRS:gndbhwq:1,2012-07-16T10:45:00Z,30.4178,-88.4054,0.0,20.2,1111122 
NERRS,ioos:station:NOAA.NERRS:gndbhwq:1,2012-07-16T11:45:00Z,30.4178,-88.4054,0.0,20.3,1111122 
NERRS,ioos:station:NOAA.NERRS:gndbhwq:1,2012-07-16T12:45:00Z,30.4178,-88.4054,0.0,20.5,1111122 
NERRS,ioos:station:NOAA.NERRS:gndbhwq:1,2012-07-16T13:45:00Z,30.4178,-88.4054,0.0,20.6,1111122 
NERRS,ioos:station:NOAA.NERRS:gndbhwq:1,2012-07-16T14:45:00Z,30.4178,-88.4054,0.0,20.5,1111122 
NERRS,ioos:station:NOAA.NERRS:gndbhwq:1,2012-07-16T15:45:00Z,30.4178,-88.4054,0.0,20.4,1111122 
NERRS,ioos:station:NOAA.NERRS:gndbhwq:1,2012-07-16T16:45:00Z,30.4178,-88.4054,0.0,20.5,1111122 
NERRS,ioos:station:NOAA.NERRS:gndbhwq:1,2012-07-16T17:45:00Z,30.4178,-88.4054,0.0,20.8,1111122 
NERRS,ioos:station:NOAA.NERRS:gndbhwq:1,2012-07-16T18:45:00Z,30.4178,-88.4054,0.0,20.3,1111122 
NERRS,ioos:station:NOAA.NERRS:gndbhwq:1,2012-07-16T19:45:00Z,30.4178,-88.4054,0.0,20.2,1111122 
NERRS,ioos:station:NOAA.NERRS:gndbhwq:1,2012-07-16T20:45:00Z,30.4178,-88.4054,0.0,19.9,1111122 
NERRS,ioos:station:NOAA.NERRS:gndbhwq:1,2012-07-16T21:45:00Z,30.4178,-88.4054,0.0,19.7,1111122 
NERRS,ioos:station:NOAA.NERRS:gndbhwq:1,2012-07-16T22:45:00Z,30.4178,-88.4054,0.0,19.2,1111122 
NERRS,ioos:station:NOAA.NERRS:gndbhwq:1,2012-07-16T23:45:00Z,30.4178,-88.4054,0.0,19.3,1111122 
NERRS,ioos:station:NOAA.NERRS:gndbhwq:1,2012-07-17T00:45:00Z,30.4178,-88.4054,0.0,19.2,1111122 
NERRS,ioos:station:NOAA.NERRS:gndbhwq:1,2012-07-17T01:45:00Z,30.4178,-88.4054,0.0,19.4,1111122 
NERRS,ioos:station:NOAA.NERRS:gndbhwq:1,2012-07-17T02:45:00Z,30.4178,-88.4054,0.0,19.7,1111122 
NERRS,ioos:station:NOAA.NERRS:gndbhwq:1,2012-07-17T03:45:00Z,30.4178,-88.4054,0.0,19.8,1111122 
NERRS,ioos:station:NOAA.NERRS:gndbhwq:1,2012-07-17T04:45:00Z,30.4178,-88.4054,0.0,19.8,1111122 
NERRS,ioos:station:NOAA.NERRS:gndbhwq:1,2012-07-17T05:45:00Z,30.4178,-88.4054,0.0,20.2,1111122 
NERRS,ioos:station:NOAA.NERRS:gndbhwq:1,2012-07-17T06:45:00Z,30.4178,-88.4054,0.0,20.5,1111122 
NERRS,ioos:station:NOAA.NERRS:gndbhwq:1,2012-07-17T07:45:00Z,30.4178,-88.4054,0.0,20.6,1111122 
NERRS,ioos:station:NOAA.NERRS:gndbhwq:1,2012-07-17T08:45:00Z,30.4178,-88.4054,0.0,20.8,1111122 
NERRS,ioos:station:NOAA.NERRS:gndbhwq:1,2012-07-17T09:45:00Z,30.4178,-88.4054,0.0,21.1,1111122 
NERRS,ioos:station:NOAA.NERRS:gndbhwq:1,2012-07-17T10:45:00Z,30.4178,-88.4054,0.0,21.3,1111122 
NERRS,ioos:station:NOAA.NERRS:gndbhwq:1,2012-07-17T11:45:00Z,30.4178,-88.4054,0.0,21.5,1111122 
NERRS,ioos:station:NOAA.NERRS:gndbhwq:1,2012-07-17T12:45:00Z,30.4178,-88.4054,0.0,21.6,1111122 
NERRS,ioos:station:NOAA.NERRS:gndbhwq:1,2012-07-17T13:45:00Z,30.4178,-88.4054,0.0,21.7,1111122 
NERRS,ioos:station:NOAA.NERRS:gndbhwq:1,2012-07-17T14:45:00Z,30.4178,-88.4054,0.0,21.7,1111122 
NERRS,ioos:station:NOAA.NERRS:gndbhwq:1,2012-07-17T15:45:00Z,30.4178,-88.4054,0.0,21.6,1111122 
NERRS,ioos:station:NOAA.NERRS:gndbhwq:1,2012-07-17T16:45:00Z,30.4178,-88.4054,0.0,21.6,1111122 
NERRS,ioos:station:NOAA.NERRS:gndbhwq:1,2012-07-17T17:45:00Z,30.4178,-88.4054,0.0,21.6,1111122 
NERRS,ioos:station:NOAA.NERRS:gndbhwq:1,2012-07-17T18:45:00Z,30.4178,-88.4054,0.0,21.7,1111122 
NERRS,ioos:station:NOAA.NERRS:gndbhwq:1,2012-07-17T19:45:00Z,30.4178,-88.4054,0.0,21.5,1111122 
NERRS,ioos:station:NOAA.NERRS:gndbhwq:1,2012-07-17T20:45:00Z,30.4178,-88.4054,0.0,21.3,1111122 
NERRS,ioos:station:NOAA.NERRS:gndbhwq:1,2012-07-17T21:45:00Z,30.4178,-88.4054,0.0,21.1,1111122 
NERRS,ioos:station:NOAA.NERRS:gndbhwq:1,2012-07-17T22:45:00Z,30.4178,-88.4054,0.0,20.9,1111122 
NERRS,ioos:station:NOAA.NERRS:gndbhwq:1,2012-07-17T23:45:00Z,30.4178,-88.4054,0.0,20.4,1111122 
NERRS,ioos:station:NOAA.NERRS:gndbhwq:1,2012-07-18T00:45:00Z,30.4178,-88.4054,0.0,20.4,1111122 
NERRS,ioos:station:NOAA.NERRS:gndbhwq:1,2012-07-18T01:45:00Z,30.4178,-88.4054,0.0,20.3,1111122 
NERRS,ioos:station:NOAA.NERRS:gndbhwq:1,2012-07-18T02:45:00Z,30.4178,-88.4054,0.0,20.4,1111122 
NERRS,ioos:station:NOAA.NERRS:gndbhwq:1,2012-07-18T03:45:00Z,30.4178,-88.4054,0.0,20.5,1111122 
NERRS,ioos:station:NOAA.NERRS:gndbhwq:1,2012-07-18T04:45:00Z,30.4178,-88.4054,0.0,20.1,1111122 
NERRS,ioos:station:NOAA.NERRS:gndbhwq:1,2012-07-18T05:45:00Z,30.4178,-88.4054,0.0,20.3,1111122 
NERRS,ioos:station:NOAA.NERRS:gndbhwq:1,2012-07-18T06:45:00Z,30.4178,-88.4054,0.0,20.1,1111122 
NERRS,ioos:station:NOAA.NERRS:gndbhwq:1,2012-07-18T07:45:00Z,30.4178,-88.4054,0.0,20.3,1111122 
NERRS,ioos:station:NOAA.NERRS:gndbhwq:1,2012-07-18T08:45:00Z,30.4178,-88.4054,0.0,20.2,1111122 
NERRS,ioos:station:NOAA.NERRS:gndbhwq:1,2012-07-18T09:45:00Z,30.4178,-88.4054,0.0,20.3,1111122 
NERRS,ioos:station:NOAA.NERRS:gndbhwq:1,2012-07-18T10:45:00Z,30.4178,-88.4054,0.0,20.3,1111122 
NERRS,ioos:station:NOAA.NERRS:gndbhwq:1,2012-07-18T11:45:00Z,30.4178,-88.4054,0.0,20.3,1111122 
NERRS,ioos:station:NOAA.NERRS:gndbhwq:1,2012-07-18T12:45:00Z,30.4178,-88.4054,0.0,20.3,1111122 
NERRS,ioos:station:NOAA.NERRS:gndbhwq:1,2012-07-18T13:45:00Z,30.4178,-88.4054,0.0,20.3,1111122 
NERRS,ioos:station:NOAA.NERRS:gndbhwq:1,2012-07-18T14:45:00Z,30.4178,-88.4054,0.0,20.3,1111122 
NERRS,ioos:station:NOAA.NERRS:gndbhwq:1,2012-07-18T15:45:00Z,30.4178,-88.4054,0.0,20.2,1111122 
NERRS,ioos:station:NOAA.NERRS:gndbhwq:1,2012-07-18T16:45:00Z,30.4178,-88.4054,0.0,20.2,1111122 
NERRS,ioos:station:NOAA.NERRS:gndbhwq:1,2012-07-18T17:45:00Z,30.4178,-88.4054,0.0,20.2,1111122 
NERRS,ioos:station:NOAA.NERRS:gndbhwq:1,2012-07-18T18:45:00Z,30.4178,-88.4054,0.0,20.1,1111122 
NERRS,ioos:station:NOAA.NERRS:gndbhwq:1,2012-07-18T19:45:00Z,30.4178,-88.4054,0.0,20.1,1111122 
NERRS,ioos:station:NOAA.NERRS:gndbhwq:1,2012-07-18T20:45:00Z,30.4178,-88.4054,0.0,19.5,1111122 
NERRS,ioos:station:NOAA.NERRS:gndbhwq:1,2012-07-18T21:45:00Z,30.4178,-88.4054,0.0,19.5,1111122 
NERRS,ioos:station:NOAA.NERRS:gndbhwq:1,2012-07-18T22:45:00Z,30.4178,-88.4054,0.0,17.9,1111122 
NERRS,ioos:station:NOAA.NERRS:gndbhwq:1,2012-07-18T23:45:00Z,30.4178,-88.4054,0.0,18.3,1111122 
NERRS,ioos:station:NOAA.NERRS:gndbhwq:1,2012-07-19T00:45:00Z,30.4178,-88.4054,0.0,18.3,1111122 
NERRS,ioos:station:NOAA.NERRS:gndbhwq:1,2012-07-19T01:45:00Z,30.4178,-88.4054,0.0,17.3,1111122 
NERRS,ioos:station:NOAA.NERRS:gndbhwq:1,2012-07-19T02:45:00Z,30.4178,-88.4054,0.0,17.2,1111122 
NERRS,ioos:station:NOAA.NERRS:gndbhwq:1,2012-07-19T03:45:00Z,30.4178,-88.4054,0.0,16.8,1111122 
NERRS,ioos:station:NOAA.NERRS:gndbhwq:1,2012-07-19T04:45:00Z,30.4178,-88.4054,0.0,18.2,1111122 
NERRS,ioos:station:NOAA.NERRS:gndbhwq:1,2012-07-19T05:45:00Z,30.4178,-88.4054,0.0,17.5,1111122 
NERRS,ioos:station:NOAA.NERRS:gndbhwq:1,2012-07-19T06:45:00Z,30.4178,-88.4054,0.0,18.2,1111122 
NERRS,ioos:station:NOAA.NERRS:gndbhwq:1,2012-07-19T07:45:00Z,30.4178,-88.4054,0.0,17.5,1111122 
NERRS,ioos:station:NOAA.NERRS:gndbhwq:1,2012-07-19T08:45:00Z,30.4178,-88.4054,0.0,18.2,1111122 
NERRS,ioos:station:NOAA.NERRS:gndbhwq:1,2012-07-19T09:45:00Z,30.4178,-88.4054,0.0,17.7,1111122 
NERRS,ioos:station:NOAA.NERRS:gndbhwq:1,2012-07-19T10:45:00Z,30.4178,-88.4054,0.0,17.9,1111122 
NERRS,ioos:station:NOAA.NERRS:gndbhwq:1,2012-07-19T11:45:00Z,30.4178,-88.4054,0.0,17.9,1111122 
NERRS,ioos:station:NOAA.NERRS:gndbhwq:1,2012-07-19T12:45:00Z,30.4178,-88.4054,0.0,18.0,1111122 
NERRS,ioos:station:NOAA.NERRS:gndbhwq:1,2012-07-19T13:45:00Z,30.4178,-88.4054,0.0,17.8,1111122 
NERRS,ioos:station:NOAA.NERRS:gndbhwq:1,2012-07-19T14:45:00Z,30.4178,-88.4054,0.0,17.8,1111122 
NERRS,ioos:station:NOAA.NERRS:gndbhwq:1,2012-07-19T15:45:00Z,30.4178,-88.4054,0.0,17.8,1111122 
NERRS,ioos:station:NOAA.NERRS:gndbhwq:1,2012-07-19T16:45:00Z,30.4178,-88.4054,0.0,17.8,1111122 
NERRS,ioos:station:NOAA.NERRS:gndbhwq:1,2012-07-19T17:45:00Z,30.4178,-88.4054,0.0,17.4,1111122 
NERRS,ioos:station:NOAA.NERRS:gndbhwq:1,2012-07-19T18:45:00Z,30.4178,-88.4054,0.0,12.5,1111122 
NERRS,ioos:station:NOAA.NERRS:gndbhwq:1,2012-07-19T19:45:00Z,30.4178,-88.4054,0.0,3.0,1111122 
NERRS,ioos:station:NOAA.NERRS:gndbhwq:1,2012-07-19T20:45:00Z,30.4178,-88.4054,0.0,0.5,1111122 
NERRS,ioos:station:NOAA.NERRS:gndbhwq:1,2012-07-19T21:45:00Z,30.4178,-88.4054,0.0,0.5,1111122 
NERRS,ioos:station:NOAA.NERRS:gndbhwq:1,2012-07-19T22:45:00Z,30.4178,-88.4054,0.0,0.1,1111122 
NERRS,ioos:station:NOAA.NERRS:gndbhwq:1,2012-07-19T23:45:00Z,30.4178,-88.4054,0.0,0.1,1111122 
NERRS,ioos:station:NOAA.NERRS:gndbhwq:1,2012-07-20T00:45:00Z,30.4178,-88.4054,0.0,0.1,1111122 
NERRS,ioos:station:NOAA.NERRS:gndbhwq:1,2012-07-20T01:45:00Z,30.4178,-88.4054,0.0,0.1,1111122 
NERRS,ioos:station:NOAA.NERRS:gndbhwq:1,2012-07-20T02:45:00Z,30.4178,-88.4054,0.0,0.1,1111122 
NERRS,ioos:station:NOAA.NERRS:gndbhwq:1,2012-07-20T03:45:00Z,30.4178,-88.4054,0.0,0.1,1111122 
NERRS,ioos:station:NOAA.NERRS:gndbhwq:1,2012-07-20T04:45:00Z,30.4178,-88.4054,0.0,0.1,1111122 
NERRS,ioos:station:NOAA.NERRS:gndbhwq:1,2012-07-20T05:45:00Z,30.4178,-88.4054,0.0,0.1,1111122 
NERRS,ioos:station:NOAA.NERRS:gndbhwq:1,2012-07-20T06:45:00Z,30.4178,-88.4054,0.0,0.1,1111122 
NERRS,ioos:station:NOAA.NERRS:gndbhwq:1,2012-07-20T07:45:00Z,30.4178,-88.4054,0.0,0.1,1111122 
NERRS,ioos:station:NOAA.NERRS:gndbhwq:1,2012-07-20T08:45:00Z,30.4178,-88.4054,0.0,0.1,1111122 
NERRS,ioos:station:NOAA.NERRS:gndbhwq:1,2012-07-20T09:45:00Z,30.4178,-88.4054,0.0,0.1,1111122 
NERRS,ioos:station:NOAA.NERRS:gndbhwq:1,2012-07-20T10:45:00Z,30.4178,-88.4054,0.0,0.1,1111122 